Trenton, NJ

8:53 AM EST on December 15, 2019 (GMT -0500)
Trenton Mercer

Weather History for KTTN - October, 2019

Change the Weather History Date:

Friday, October 11, 2019

  Actual Average Record
Temperature  
Mean Temperature 58 °F 56 °F  
Max Temperature 64 °F 67 °F 85 °F (1949)
Min Temperature 50 °F 46 °F 31 °F (1993)
Degree Days  
Heating Degree Days 8 9  
Month to date heating degree days 56 84  
Since 1 July heating degree days 74 149  
Cooling Degree Days 0 0  
Month to date cooling degree days 26 7  
Year to date cooling degree days 1163 962  
Growing Degree Days 8 (Base 50)    
Moisture  
Dew Point 40 °F    
Average Humidity 51    
Maximum Humidity 69    
Minimum Humidity 38    
Precipitation  
Precipitation 0.00 in 0.14 in 1.72 in (2006)
Month to date precipitation 0.90 1.66  
Year to date precipitation 39.56 36.91  
Sea Level Pressure  
Sea Level Pressure 30.08 in    
Wind  
Wind Speed 8 mph ()    
Max Wind Speed 21 mph    
Max Gust Speed 30 mph    
Visibility 10.0 miles    
Events      
T = Trace of Precipitation, MM = Missing Value Source: Averaged Metar Reports

Daily Weather History Graph

Daily Weather History Graph

Search for Another Location

Airport or City:

Astronomy

Oct. 11, 2019 Rise Set
Actual Time 7:05 AM EDT 6:25 PM EDT
Civil Twilight 6:38 AM EDT 6:53 PM EDT
Nautical Twilight 6:06 AM EDT 7:24 PM EDT
Astronomical Twilight 5:35 AM EDT 7:56 PM EDT
Moon 5:54 PM EDT (10/11) 4:43 AM EDT (10/11)
Length of Visible Light 12h 14m
Length of Day
11h 20m
Waxing Gibbous, 96% of the Moon is Illuminated
Oct 11
Waxing Gibbous
Oct 13
Full
Oct 21
Last Quarter
Oct 27
New
Nov 4
First Quarter

Hourly Weather History & Observations

Time (EDT) Temp. Dew Point Humidity Pressure Visibility Wind Dir Wind Speed Gust Speed Precip Events Conditions
12:53 AM 55.9 °F 33.1 °F 42% 30.13 in 10.0 mi NNE 6.9 mph - N/A   Clear
1:53 AM 55.9 °F 30.9 °F 39% 30.13 in 10.0 mi NNE 5.8 mph - N/A   Clear
2:53 AM 55.0 °F 30.9 °F 40% 30.11 in 10.0 mi NNE 5.8 mph - N/A   Clear
3:53 AM 55.0 °F 32.0 °F 42% 30.10 in 10.0 mi NNE 5.8 mph - N/A   Clear
4:53 AM 51.1 °F 33.1 °F 50% 30.12 in 10.0 mi NW 5.8 mph - N/A   Clear
5:53 AM 50.0 °F 34.0 °F 54% 30.11 in 10.0 mi NNW 6.9 mph - N/A   Clear
6:53 AM 51.1 °F 35.1 °F 54% 30.11 in 10.0 mi North 6.9 mph - N/A   Clear
7:53 AM 54.0 °F 36.0 °F 51% 30.11 in 10.0 mi North 9.2 mph - N/A   Clear
8:53 AM 57.0 °F 37.0 °F 47% 30.11 in 10.0 mi NNE 13.8 mph 21.9 mph N/A   Clear
9:53 AM 61.0 °F 39.0 °F 44% 30.10 in 10.0 mi NNE 13.8 mph 24.2 mph N/A   Clear
10:53 AM 62.1 °F 39.9 °F 44% 30.10 in 10.0 mi NNE 19.6 mph 26.5 mph N/A   Overcast
11:53 AM 62.1 °F 43.0 °F 50% 30.09 in 10.0 mi NNE 16.1 mph 25.3 mph N/A   Overcast
12:53 PM 63.0 °F 44.1 °F 50% 30.09 in 10.0 mi ENE 15.0 mph 20.7 mph N/A   Overcast
1:53 PM 63.0 °F 44.1 °F 50% 30.08 in 10.0 mi NE 9.2 mph 18.4 mph N/A   Overcast
2:53 PM 64.0 °F 45.0 °F 50% 30.06 in 10.0 mi North 12.7 mph 19.6 mph N/A   Overcast
3:53 PM 64.9 °F 44.1 °F 47% 30.05 in 10.0 mi North 10.4 mph - N/A   Overcast
4:53 PM 64.9 °F 44.1 °F 47% 30.04 in 10.0 mi NNE 11.5 mph 17.3 mph N/A   Overcast
5:53 PM 63.0 °F 45.0 °F 52% 30.05 in 10.0 mi NE 10.4 mph - N/A   Overcast
6:53 PM 61.0 °F 45.0 °F 56% 30.06 in 10.0 mi NNE 11.5 mph 19.6 mph N/A   Overcast
7:53 PM 61.0 °F 45.0 °F 56% 30.05 in 10.0 mi NNE 5.8 mph - N/A   Overcast
8:53 PM 59.0 °F 44.1 °F 58% 30.04 in 10.0 mi NNE 4.6 mph - N/A   Partly Cloudy
9:53 PM 55.9 °F 45.0 °F 67% 30.04 in 10.0 mi WNW 4.6 mph - N/A   Clear
10:53 PM 55.9 °F 44.1 °F 64% 30.03 in 10.0 mi NNE 5.8 mph - N/A   Clear
11:53 PM 55.0 °F 45.0 °F 69% 30.01 in 10.0 mi North 3.5 mph - N/A   Clear